Home   Weather   Reston   Past weeks

Flag for USA Past Weather in Reston, Virginia, USA — Yesterday and Last 2 Weeks

Now
62 °F

Passing clouds.


Feels Like: 62 °F
Forecast: 57 / 72 °F
Wind: 3 mph from Southeast

Location: Washington-Dulles International Airport

Current Time: Sep 25, 2016 at 11:46:49 PM

Latest Report: Sep 25, 2016 at 10:52 PM


Visibility: 10 mi

Pressure: 30.17 "Hg

Humidity: 75%

Dew Point: 54 °F

Location of RestonLocation

Past Weather in Reston — Graph

°F

Reston Temperature Yesterday

Maximum temperature yesterday: 75 °F (at 9:52 AM)
Minimum temperature yesterday: 59 °F (at 11:52 PM)
Average temperature yesterday: 69 °F

High & Low Weather Summary for the Past Weeks

 TemperatureHumidityPressure
High92 °F (Sep 14, 2:52 PM)97% (Sep 14, 5:52 AM)30.29 "Hg (Sep 14, 5:52 AM)
Low54 °F (Sep 25, 6:52 AM)21% (Sep 14, 3:52 PM)29.89 "Hg (Sep 11, 2:52 AM)
Average73 °F67%30.11 "Hg
* Reported Sep 10 10:52 PM — Sep 25 10:52 PM, Reston, Weather by CustomWeather, © 2016

Note: Actual official high and low records may vary slightly from our data, if they occured in-between our weather recording intervals... More about our weather records

Advertising

Reston Weather History for the Previous 24 Hours

Scroll right to see more
 ConditionsComfort  
Time TempWeatherWind HumidityBarometerVisibility
10:52 PM
Sun, Sep 25
62 °FPassing clouds.3 mph75%30.17 "Hg10 mi
9:52 PM60 °FPartly cloudy.No wind75%30.17 "Hg10 mi
8:52 PM60 °FPassing clouds.No wind72%30.16 "Hg10 mi
7:52 PM63 °FPassing clouds.No wind65%30.15 "Hg10 mi
6:52 PM65 °FScattered clouds.6 mph59%30.15 "Hg10 mi
5:52 PM68 °FScattered clouds.9 mph49%30.14 "Hg10 mi
4:52 PM70 °FScattered clouds.6 mph44%30.13 "Hg10 mi
3:52 PM70 °FScattered clouds.5 mph42%30.14 "Hg10 mi
2:52 PM71 °FPartly sunny.6 mph39%30.16 "Hg10 mi
1:52 PM70 °FPartly sunny.No wind39%30.18 "Hg10 mi
12:52 PM69 °FPartly sunny.6 mph39%30.20 "Hg10 mi
11:52 AM67 °FBroken clouds.6 mph41%30.22 "Hg10 mi
10:52 AM65 °FBroken clouds.3 mph44%30.22 "Hg10 mi
9:52 AM63 °FPassing clouds.6 mph48%30.22 "Hg10 mi
8:52 AM60 °FPassing clouds.6 mph58%30.23 "Hg10 mi
7:52 AM56 °FPassing clouds.8 mph72%30.22 "Hg10 mi
6:52 AM54 °FPassing clouds.6 mph80%30.21 "Hg10 mi
5:52 AM56 °FPassing clouds.7 mph75%30.20 "Hg10 mi
4:52 AM57 °FPassing clouds.6 mph83%30.17 "Hg10 mi
3:52 AM59 °FPassing clouds.7 mph90%30.16 "Hg10 mi
2:52 AM61 °FPassing clouds.6 mph90%30.16 "Hg8 mi
1:52 AM57 °FPassing clouds.No wind93%30.16 "Hg10 mi
12:52 AM56 °FPassing clouds.No wind97%30.15 "Hg9 mi
11:52 PM
Sat, Sep 24
59 °FPassing clouds.No wind93%30.15 "Hg9 mi
Weather by CustomWeather, © 2016

See weather overviewHow to use our weather pages